Location: Clandonald
(53.5720°N, 110.7141°W)
Time: 20:35:38
(UTC+00:00)

X-37B - Visible Passes

Search period start: 18 June 2021 00:00
Search period end: 28 June 2021 00:00
Orbit: 386 x 389 km, 45.0° (Epoch: 10 June)

Date Brightness Start Highest point End Pass type
(mag) Time Alt. Az. Time Alt. Az. Time Alt. Az.
18 Jun 2.5 08:29:40 15° SSE 08:29:40 15° SSE 08:31:13 10° SE visible
19 Jun 2.2 09:05:59 16° SSW 09:07:00 18° S 09:09:14 10° SE visible
20 Jun 2.7 08:10:14 14° SE 08:10:14 14° SE 08:11:04 10° SE visible
20 Jun 2.4 09:42:54 10° SW 09:44:46 15° SSW 09:46:38 10° SSE visible
21 Jun 2.3 08:47:09 16° S 08:47:09 16° S 08:48:48 10° SE visible
22 Jun 2.7 09:25:04 11° S 09:25:04 11° S 09:25:37 10° S visible
24 Jun 2.3 05:50:14 10° SSW 05:51:55 16° S 05:51:55 16° S visible
25 Jun 2.5 04:52:32 10° SSW 04:54:09 13° SSE 04:55:45 10° SE visible
25 Jun 2.5 06:27:48 10° SW 06:29:00 15° SSW 06:29:00 15° SSW visible
26 Jun 2.2 05:29:42 10° SW 05:31:55 17° S 05:33:17 14° SE visible
27 Jun 2.3 06:07:34 10° SW 06:09:38 17° S 06:09:38 17° S visible
